Weather History for Jefferson, NC

Change the Weather History Date:

Tuesday, January 22, 2013

  Actual Average Record
Temperature  
Mean Temperature 18 °F -  
Max Temperature 22 °F 41 °F 63 °F (1967)
Min Temperature 14 °F 21 °F -1 °F (1970)
Degree Days  
Heating Degree Days 46    
Moisture  
Dew Point -8 °F    
Average Humidity 30    
Maximum Humidity 43    
Minimum Humidity 19    
Precipitation  
Precipitation 0.00 in - - ()
Sea Level Pressure  
Sea Level Pressure 30.00 in    
Wind  
Wind Speed 16 mph (WNW)    
Max Wind Speed 29 mph    
Max Gust Speed 45 mph    
Visibility 10 miles    
Events      
Averages and records for this station are not official NWS values.
T = Trace of Precipitation, MM = Missing Value Source: NWS Daily Summary

Daily Weather History Graph

Daily Weather History Graph

Search for Another Location

Airport:

Trip Planner

Search our weather history database for the weather conditions in past years. The results will help you decide how hot, cold, wet, or windy it might be!

Date:

Astronomy

Jan. 22, 2013 Rise Set
Actual Time 7:33 AM EST 5:41 PM EST
Civil Twilight 7:05 AM EST 6:09 PM EST
Nautical Twilight 6:34 AM EST 6:40 PM EST
Astronomical Twilight 6:03 AM EST 7:11 PM EST
Moon 2:04 PM EST (1/22) 3:52 AM EST (1/22)
Length of Visible Light 11h 03m
Length of Day
10h 07m
Waxing Gibbous, 82% of the Moon is Illuminated
Jan 22
Waxing Gibbous
Jan 26
Full
Feb 3
Last Quarter
Feb 10
New
Feb 17
First Quarter

Hourly Weather History & Observations

Time (EST) Temp. Windchill Dew Point Humidity Pressure Visibility Wind Dir Wind Speed Gust Speed Precip Events Conditions
12:15 AM 23.0 °F 8.0 °F 0.5 °F 38% 29.87 in 10.0 mi WNW 20.7 mph 39.1 mph N/A   Clear
12:35 AM 22.1 °F 7.2 °F -1.3 °F 36% 29.87 in 10.0 mi WNW 19.6 mph 43.7 mph N/A   Clear
12:55 AM 21.7 °F 4.0 °F -2.9 °F 34% 29.86 in 10.0 mi WNW 28.8 mph 44.9 mph N/A   Clear
1:15 AM 21.2 °F 4.9 °F -3.3 °F 34% 29.86 in 10.0 mi WNW 23.0 mph 41.4 mph N/A   Clear
1:55 AM 20.3 °F 2.3 °F -5.4 °F 32% 29.85 in 10.0 mi WNW 27.6 mph 44.9 mph N/A   Clear
2:15 AM 19.8 °F 5.0 °F -4.7 °F 34% 29.87 in 10.0 mi WNW 17.3 mph 39.1 mph N/A   Clear
2:35 AM 19.4 °F 2.1 °F -2.9 °F 37% 29.87 in 10.0 mi WNW 24.2 mph 38.0 mph N/A   Clear
2:55 AM 18.9 °F 0.1 °F -2.2 °F 40% 29.87 in 10.0 mi WNW 28.8 mph 40.3 mph N/A   Clear
3:15 AM 18.5 °F 0.6 °F -1.7 °F 41% 29.88 in 10.0 mi WNW 25.3 mph 44.9 mph N/A   Clear
3:35 AM 18.1 °F 2.9 °F -1.5 °F 42% 29.89 in 10.0 mi WNW 17.3 mph 28.8 mph N/A   Clear
3:55 AM 17.6 °F 1.3 °F -1.7 °F 43% 29.88 in 10.0 mi WNW 19.6 mph 39.1 mph N/A   Clear
4:15 AM 17.4 °F 4.7 °F -2.0 °F 42% 29.89 in 10.0 mi NW 11.5 mph 38.0 mph N/A   Clear
4:35 AM 17.1 °F 4.3 °F -3.6 °F 40% 29.89 in 10.0 mi NW 11.5 mph 31.1 mph N/A   Clear
5:15 AM 16.5 °F -0.1 °F -5.8 °F 37% 29.89 in 10.0 mi WNW 19.6 mph 42.6 mph N/A   Clear
5:35 AM 16.2 °F -0.2 °F -6.3 °F 37% 29.90 in 10.0 mi WNW 18.4 mph 35.7 mph N/A   Clear
5:55 AM 15.8 °F 2.7 °F -6.7 °F 37% 29.92 in 10.0 mi WNW 11.5 mph 27.6 mph N/A   Clear
6:15 AM 15.4 °F 2.3 °F -6.5 °F 37% 29.93 in 10.0 mi WNW 11.5 mph 31.1 mph N/A   Clear
6:35 AM 15.3 °F -0.4 °F -6.9 °F 37% 29.95 in 10.0 mi WNW 16.1 mph 23.0 mph N/A   Clear
6:55 AM 14.9 °F -0.3 °F -8.1 °F 36% 29.96 in 10.0 mi WNW 15.0 mph 29.9 mph N/A   Clear
7:15 AM 14.9 °F -0.3 °F -8.3 °F 35% 29.97 in 10.0 mi NW 15.0 mph 29.9 mph N/A   Clear
7:35 AM 14.4 °F 6.9 °F -8.3 °F 36% 29.98 in 10.0 mi West 4.6 mph 25.3 mph N/A   Clear
7:55 AM 14.0 °F 8.2 °F -6.5 °F 40% 29.99 in 10.0 mi North 3.5 mph - N/A   Clear
8:15 AM 14.4 °F - -7.6 °F 37% 30.00 in 10.0 mi Calm Calm - N/A   Clear
8:35 AM 14.7 °F 9.0 °F -6.9 °F 38% 30.01 in 10.0 mi West 3.5 mph 16.1 mph N/A   Clear
8:55 AM 14.9 °F - -8.3 °F 35% 30.01 in 10.0 mi Calm Calm - N/A   Clear
9:15 AM 15.4 °F 9.8 °F -10.3 °F 31% 30.02 in 10.0 mi WSW 3.5 mph - N/A   Clear
9:35 AM 16.3 °F 9.2 °F -8.7 °F 33% 30.04 in 10.0 mi West 4.6 mph - N/A   Clear
9:55 AM 16.5 °F 3.0 °F -9.4 °F 31% 30.04 in 10.0 mi WNW 12.7 mph 19.6 mph N/A   Clear
10:15 AM 17.1 °F 7.6 °F -10.3 °F 29% 30.04 in 10.0 mi West 6.9 mph 20.7 mph N/A   Clear
10:35 AM 17.6 °F 7.3 °F -10.5 °F 28% 30.05 in 10.0 mi West 8.1 mph - N/A   Clear
10:55 AM 18.7 °F 9.5 °F -9.0 °F 29% 30.06 in 10.0 mi West 6.9 mph - N/A   Clear
11:15 AM 19.4 °F 8.6 °F -9.6 °F 27% 30.06 in 10.0 mi West 9.2 mph - N/A   Clear
11:35 AM 19.6 °F 6.8 °F -9.6 °F 27% 30.06 in 10.0 mi West 12.7 mph 21.9 mph N/A   Clear
11:55 AM 20.1 °F 7.5 °F -9.8 °F 26% 30.06 in 10.0 mi West 12.7 mph 21.9 mph N/A   Clear
12:15 PM 20.7 °F 7.1 °F -9.2 °F 26% 30.05 in 10.0 mi West 15.0 mph 25.3 mph N/A   Clear
12:35 PM 20.8 °F 6.4 °F -9.2 °F 26% 30.04 in 10.0 mi West 17.3 mph 24.2 mph N/A   Clear
12:55 PM 21.2 °F 8.3 °F -8.5 °F 27% 30.04 in 10.0 mi West 13.8 mph 21.9 mph N/A   Clear
1:15 PM 21.2 °F 7.8 °F -8.7 °F 27% 30.03 in 10.0 mi West 15.0 mph 25.3 mph N/A   Clear
1:35 PM 21.4 °F 9.7 °F -10.5 °F 24% 30.03 in 10.0 mi West 11.5 mph 24.2 mph N/A   Clear
1:55 PM 21.4 °F 7.5 °F -11.2 °F 23% 30.02 in 10.0 mi West 16.1 mph 27.6 mph N/A   Clear
2:15 PM 21.7 °F 9.0 °F -12.5 °F 22% 30.03 in 10.0 mi WNW 13.8 mph 33.4 mph N/A   Clear
2:35 PM 22.6 °F 8.7 °F -10.7 °F 23% 30.04 in 10.0 mi West 17.3 mph 21.9 mph N/A   Clear
3:15 PM 22.5 °F 9.9 °F -12.3 °F 21% 30.03 in 10.0 mi West 13.8 mph 24.2 mph N/A   Clear
3:35 PM 22.5 °F 11.7 °F -11.6 °F 22% 30.03 in 10.0 mi WNW 10.4 mph 21.9 mph N/A   Clear
3:55 PM 22.8 °F 10.9 °F -14.1 °F 19% 30.04 in 10.0 mi NW 12.7 mph 24.2 mph N/A   Clear
4:15 PM 22.1 °F 8.0 °F -12.3 °F 22% 30.03 in 10.0 mi West 17.3 mph 33.4 mph N/A   Clear
4:35 PM 22.3 °F 7.4 °F -11.9 °F 22% 30.03 in 10.0 mi WNW 19.6 mph 28.8 mph N/A   Clear
4:55 PM 21.9 °F 11.0 °F -11.7 °F 22% 30.04 in 10.0 mi West 10.4 mph 23.0 mph N/A   Clear
5:15 PM 21.4 °F 7.1 °F -11.2 °F 23% 30.05 in 10.0 mi West 17.3 mph 27.6 mph N/A   Clear
5:35 PM 20.7 °F 4.9 °F -13.9 °F 21% 30.05 in 10.0 mi West 20.7 mph 27.6 mph N/A   Clear
5:55 PM 20.1 °F 8.1 °F -12.6 °F 23% 30.06 in 10.0 mi West 11.5 mph 26.5 mph N/A   Clear
6:15 PM 19.9 °F 6.7 °F -10.7 °F 25% 30.06 in 10.0 mi West 13.8 mph 17.3 mph N/A   Clear
6:35 PM 19.4 °F 4.5 °F -10.7 °F 26% 30.05 in 10.0 mi WNW 17.3 mph 26.5 mph N/A   Clear
6:55 PM 19.0 °F 5.6 °F -11.0 °F 26% 30.06 in 10.0 mi WNW 13.8 mph 26.5 mph N/A   Clear
7:15 PM 19.0 °F 4.5 °F -11.2 °F 26% 30.06 in 10.0 mi West 16.1 mph 27.6 mph N/A   Clear
7:35 PM 18.9 °F 5.9 °F -9.0 °F 29% 30.06 in 10.0 mi WNW 12.7 mph 31.1 mph N/A   Scattered Clouds
7:55 PM 18.5 °F 9.3 °F -8.7 °F 30% 30.06 in 10.0 mi West 6.9 mph 25.3 mph N/A   Scattered Clouds
8:15 PM 18.5 °F 6.1 °F -8.7 °F 30% 30.05 in 10.0 mi WNW 11.5 mph 17.3 mph N/A   Clear
8:35 PM 18.5 °F 4.9 °F -8.1 °F 30% 30.05 in 10.0 mi West 13.8 mph 24.2 mph N/A   Clear
8:55 PM 18.5 °F 3.8 °F -8.0 °F 31% 30.05 in 10.0 mi West 16.1 mph 25.3 mph N/A   Clear
9:15 PM 18.5 °F 2.4 °F -8.7 °F 30% 30.07 in 10.0 mi WNW 19.6 mph 27.6 mph N/A   Clear
9:35 PM 18.5 °F 3.8 °F -9.4 °F 29% 30.08 in 10.0 mi West 16.1 mph 28.8 mph N/A   Clear
9:55 PM 18.3 °F 4.1 °F -8.5 °F 30% 30.08 in 10.0 mi West 15.0 mph 26.5 mph N/A   Clear
10:15 PM 18.3 °F 3.1 °F -9.2 °F 29% 30.07 in 10.0 mi West 17.3 mph 25.3 mph N/A   Clear
10:35 PM 18.3 °F 4.6 °F -10.1 °F 28% 30.08 in 10.0 mi West 13.8 mph 25.3 mph N/A   Clear
10:55 PM 18.5 °F 4.3 °F -10.7 °F 27% 30.08 in 10.0 mi West 15.0 mph 27.6 mph N/A   Clear
11:15 PM 18.5 °F 5.5 °F -11.7 °F 26% 30.08 in 10.0 mi WNW 12.7 mph 18.4 mph N/A   Clear
11:35 PM 18.3 °F 2.2 °F -11.9 °F 26% 30.08 in 10.0 mi West 19.6 mph 26.5 mph N/A   Clear
11:55 PM 18.1 °F 5.0 °F -11.7 °F 26% 30.07 in 10.0 mi WNW 12.7 mph 29.9 mph N/A   Clear